Location: Ottawa
(45.4167°N, 75.7000°W)
Time: 13:53:22
(UTC-04:00)

N. Korean satellite - Pass Details

Date: 07 October 2017
Orbit: 459 x 517 km, 97.2° (Epoch: 19 October)

Event Time Altitude Azimuth Distance (km) Brightness Sun altitude
Rises 18:59:38 0° 166° (SSE) 2,578 10.1 -5.8°
Reaches altitude 10° 19:01:43 10° 166° (SSE) 1,690 9.2 -6.1°
Maximum altitude 19:05:21 88° 77° (ENE) 496 6.6 -6.8°
Drops below altitude 10° 19:08:58 10° 348° (NNW) 1,671 9.4 -7.4°
Sets 19:11:01 0° 348° (NNW) 2,546 10.4 -7.8°
